Theta_e
283 282 282 283 283 283 283 283 284 284 284 284 283 283 284 284 284 284 284 284 284 284 284 284 284 284 284 284 284 284 283 283 283 284 284 284 283 284 284 284 284 285
282 283 283 283 283 283 283 283 283 284 284 284 284 284 284 284 284 283 283 283 283 283 283 283 283 283 283 283 283 282 282 282 282 284 283 283 283 283 283 284 284 285
281 281 281 281 281 282 282 282 282 283 283 283 283 283 283 283 283 283 283 283 282 282 282 282 282 282 282 282 282 281 281 281 281 282 282 282 282 282 282 283 283 284
281 281 281 281 281 281 281 281 281 281 281 281 280 281 282 282 281 280 280 281 280 280 281 281 281 281 281 281 281 281 281 281 281 281 281 281 281 281 281 282 282 283
280 280 280 281 282 282 282 282 281 281 281 281 280 281 280 280 280 280 280 280 279 279 278 278 278 279 279 279 280 279 280 280 280 280 280 280 280 281 281 281 281 281
279 279 279 280 280 280 279 279 279 279 280 280 280 280 280 280 279 279 279 278 279 279 278 278 278 278 278 278 278 278 278 278 279 279 279 279 279 280 280 280 280 280
278 278 278 279 279 280 279 279 279 279 278 278 277 278 278 278 278 278 278 278 277 278 277 277 277 277 277 277 277 276 277 277 278 278 278 278 278 278 279 279 279 279
277 278 278 278 278 277 277 277 277 277 277 277 277 277 277 277 276 277 277 276 276 275 276 276 276 276 276 276 276 276 276 277 277 276 276 277 277 277 278 279 278 278
277 277 277 277 277 276 276 276 276 276 276 275 275 274 275 274 274 275 275 275 274 275 275 275 275 275 275 275 275 275 274 275 276 276 276 276 276 276 277 277 277 277
275 276 276 276 275 275 275 275 275 274 274 273 273 273 272 273 273 273 273 273 273 273 273 273 273 274 274 274 274 274 274 274 274 275 275 275 275 275 276 276 276 276
274 275 275 274 274 274 274 273 272 272 272 271 271 271 271 271 272 272 271 271 271 271 271 271 272 272 271 272 272 273 273 273 273 273 273 274 274 275 276 275 276 276
274 274 274 273 273 273 272 272 271 270 270 270 270 270 270 270 270 270 270 270 270 270 270 270 270 270 270 270 271 271 271 272 272 273 273 273 274 274 274 275 275 275
273 273 273 272 272 271 271 270 270 269 269 269 269 269 269 268 268 269 269 268 268 269 268 268 268 269 269 269 269 270 270 271 271 272 272 272 273 273 273 273 274 274
272 272 271 271 271 270 269 269 268 268 268 268 268 267 267 267 267 267 267 267 267 267 267 267 267 267 268 268 269 270 270 271 271 271 271 271 271 272 272 272 273 273
271 271 270 270 269 268 268 267 267 266 266 266 266 265 266 266 266 266 265 265 266 266 266 266 266 266 267 267 269 270 271 271 271 271 271 271 271 271 272 272 272 273
270 269 268 268 267 266 266 265 265 264 264 264 264 264 264 264 264 264 264 264 264 264 264 264 265 265 267 270 273 271 271 271 271 271 271 271 271 271 271 271 271 271
268 267 266 266 265 265 263 263 264 263 262 262 262 262 262 263 263 263 263 263 263 263 263 263 264 264 268 272 273 274 272 271 271 271 271 271 270 270 269 270 270 271
266 265 264 264 263 262 262 261 261 260 260 261 261 261 262 261 262 262 262 262 262 262 262 262 263 266 269 271 272 273 274 272 271 270 270 270 270 270 269 269 269 269
264 263 262 261 261 261 260 260 259 260 260 260 260 260 260 261 261 261 261 262 261 261 261 262 262 265 269 271 272 273 274 273 270 270 269 269 269 269 268 268 268 268
263 261 261 261 260 260 260 259 259 259 259 259 260 260 260 260 259 260 260 260 260 260 260 261 261 264 269 271 272 273 273 273 270 270 269 269 268 268 267 267 267 267
262 261 260 260 259 259 258 258 259 258 259 259 259 260 259 259 259 258 259 259 259 259 259 259 260 266 269 270 271 272 273 273 269 268 268 267 267 267 267 267 268 268
261 260 259 259 260 258 258 259 259 258 258 259 258 259 258 259 259 258 258 258 259 258 258 258 260 266 268 269 270 272 273 269 268 267 267 267 267 267 267 267 268 268
261 260 259 258 258 258 257 257 259 258 258 258 257 258 258 258 257 258 258 258 258 258 258 258 258 263 267 269 270 271 270 267 267 267 267 266 266 267 267 268 268 268
261 259 258 257 256 256 257 258 257 257 257 257 257 257 257 257 257 257 257 257 257 257 258 257 258 262 267 268 270 270 270 267 267 267 266 266 267 267 268 268 268 270
259 258 258 257 256 257 256 256 256 257 257 257 257 256 257 257 257 257 257 257 257 257 259 259 258 260 265 267 269 270 269 268 268 267 266 266 267 267 267 267 268 269
258 257 257 256 257 256 255 256 256 256 256 257 256 256 256 256 256 256 256 256 257 257 257 258 258 258 260 267 269 270 271 269 268 267 266 266 267 267 266 267 268 268
Wind_Speed
6 6 7 7 7 6 6 7 7 7 7 6 7 6 6 5 6 7 7 7 7 7 7 7 7 8 7 7 7 7 6 6 6 5 6 6 6 6 6 7 5 4
6 6 5 6 6 6 6 6 6 6 6 6 5 5 5 6 7 7 7 8 8 8 8 8 7 7 7 6 7 7 7 7 8 5 7 7 5 5 6 6 5 5
5 5 5 6 6 6 6 5 5 5 6 5 4 5 5 4 6 6 6 7 7 8 8 8 8 8 8 7 7 6 6 7 7 7 6 7 6 6 6 5 5 4
5 4 5 4 5 5 5 6 5 5 4 5 5 4 5 4 4 5 5 6 6 6 6 6 7 7 7 7 6 6 6 5 5 5 6 5 5 5 6 6 6 5
4 4 4 4 4 4 5 6 6 6 6 5 4 4 5 5 5 5 5 5 4 4 4 5 4 5 5 6 5 6 6 6 6 6 6 7 6 6 6 6 7 7
4 4 4 4 4 5 6 6 5 5 6 7 7 6 6 6 6 6 6 6 6 6 5 5 6 6 6 5 6 5 6 7 7 7 7 7 8 6 6 6 7 8
5 5 6 5 7 7 8 7 7 7 7 5 4 7 6 7 8 7 7 7 7 7 7 7 7 7 6 5 5 5 5 5 6 7 8 8 7 8 6 7 7 8
5 5 5 6 7 8 8 8 7 7 6 7 8 7 8 9 9 8 8 8 8 8 7 7 7 6 6 6 7 7 6 5 6 7 7 8 7 9 8 7 8 9
5 6 6 7 8 7 7 6 6 6 6 6 6 6 5 6 6 6 7 8 7 8 9 9 10 9 9 9 9 9 10 10 8 8 9 9 10 9 9 8 9 9
6 5 7 6 7 6 6 6 6 6 5 6 6 6 7 6 6 7 6 7 6 6 6 7 8 8 8 9 9 10 10 11 10 10 10 10 11 11 11 10 10 11
6 5 6 7 6 6 6 6 6 6 6 7 7 7 7 6 6 6 6 7 7 8 8 8 8 9 9 9 8 8 9 9 10 10 10 11 11 11 10 10 10 10
5 6 6 6 6 6 6 6 6 6 6 6 6 7 6 6 6 6 6 7 7 7 7 8 8 8 8 9 9 9 9 10 9 10 10 10 10 10 10 9 10 11
5 5 5 5 5 5 5 5 6 6 6 7 6 6 6 7 7 6 6 6 7 6 8 8 8 8 8 8 8 8 9 9 10 10 10 10 9 11 11 11 10 10
4 4 5 5 5 5 6 6 6 6 7 7 6 7 7 7 8 8 7 6 6 6 6 6 7 7 7 7 8 8 9 10 9 10 10 11 11 11 10 10 10 10
4 4 5 5 6 5 6 6 6 6 6 6 6 6 6 7 7 8 8 8 8 8 8 7 7 7 6 7 9 11 10 11 11 10 12 12 12 12 11 9 9 8
5 4 4 4 5 5 6 5 5 6 6 5 6 6 6 6 7 7 6 7 9 8 7 6 6 5 9 17 15 12 13 11 12 12 12 13 13 14 13 11 11 10
4 4 4 4 4 5 3 3 5 4 4 4 4 4 6 6 6 7 6 7 7 8 8 6 6 6 16 18 19 20 14 12 12 13 12 13 12 13 13 14 13 13
3 4 3 3 3 3 3 3 3 3 3 3 4 4 4 3 5 5 6 6 6 7 7 7 7 12 18 19 19 20 18 13 12 11 11 11 11 12 12 12 13 13
3 3 2 2 2 2 2 3 3 4 4 5 5 4 4 4 6 7 6 6 7 8 9 8 8 13 18 19 19 20 20 17 11 11 11 11 12 12 12 12 12 12
4 3 3 3 2 3 3 3 4 4 4 4 4 4 4 4 4 6 6 6 7 8 9 9 8 14 19 20 20 20 20 18 12 12 11 11 12 12 11 12 12 12
3 3 3 2 3 3 3 3 3 3 4 4 4 5 6 6 6 6 6 6 7 7 8 10 8 18 19 21 20 21 21 18 11 11 10 11 11 12 12 12 12 12
2 2 2 2 3 3 3 4 4 4 5 5 4 4 3 4 5 4 7 7 7 8 9 10 9 18 20 20 21 21 22 12 9 11 11 11 11 11 12 11 12 12
2 2 2 3 3 4 4 4 5 5 4 3 5 5 6 5 5 6 6 7 8 8 9 11 9 14 20 21 21 22 17 10 9 8 10 11 12 12 12 12 12 13
2 1 2 3 3 4 4 4 3 3 3 3 5 7 7 5 6 7 5 6 8 9 8 11 11 14 21 21 21 21 18 11 8 8 8 9 11 11 11 11 13 22
1 1 1 2 3 3 3 5 4 4 4 4 4 4 7 6 6 7 7 6 6 9 13 13 11 13 19 20 22 21 16 10 9 8 7 8 11 11 10 10 11 14
1 1 1 2 4 3 3 4 4 4 4 4 5 4 6 6 6 7 9 9 7 8 8 8 11 10 12 22 21 21 21 13 9 8 9 10 10 9 10 9 9 11
Wind_Direction
75 73 76 73 71 70 65 59 50 51 46 38 37 26 24 13 9 15 12 15 17 18 15 13 10 10 7 6 7 5 9 4 359 353 355 351 348 350 344 341 342 337
69 71 74 76 73 67 63 61 54 54 46 43 34 28 20 16 11 12 10 9 11 12 8 10 10 8 6 6 2 1 358 359 355 353 349 347 341 339 334 335 330 324
70 70 71 73 76 70 67 59 60 49 50 36 32 30 19 16 10 11 14 9 8 6 5 3 2 1 2 0 358 358 355 352 350 344 343 336 335 335 329 324 322 318
58 62 69 66 67 68 59 61 49 50 43 36 29 19 20 11 9 9 13 8 9 1 359 359 359 355 356 354 352 353 347 342 334 330 329 323 324 324 323 323 316 314
57 49 48 58 55 64 63 57 50 42 40 33 25 24 20 15 13 11 10 5 5 357 355 355 354 351 352 348 350 344 341 337 331 335 328 325 321 324 319 319 315 314
60 68 64 77 68 62 54 51 43 39 32 27 23 19 19 11 13 7 6 4 3 2 359 359 357 354 351 347 343 344 336 334 330 331 328 324 320 322 319 318 314 312
62 55 50 52 53 46 48 39 35 31 32 18 12 21 12 9 10 5 4 3 360 1 0 355 355 351 350 348 339 335 330 321 323 326 322 319 317 315 315 313 310 305
55 54 51 49 51 42 39 36 27 27 21 14 22 8 11 3 1 358 358 357 357 354 355 353 353 352 347 349 341 336 332 329 326 321 314 310 314 312 316 315 308 306
59 49 47 47 49 42 40 37 32 28 23 21 19 8 7 5 355 358 355 355 355 354 352 352 350 349 350 348 344 341 336 334 333 329 323 321 319 313 313 311 307 305
54 46 54 50 49 42 41 35 32 25 18 21 17 4 5 0 2 358 359 354 354 351 349 347 344 344 344 343 339 336 331 328 330 328 324 319 316 315 316 315 309 306
49 46 50 45 44 40 38 33 28 21 16 14 9 5 1 357 359 0 357 357 356 349 345 347 346 342 338 334 331 326 322 321 322 320 316 313 309 307 307 307 306 303
46 46 46 43 43 37 34 29 25 19 12 9 6 356 354 359 357 357 354 351 349 343 343 342 341 336 331 327 325 325 324 318 312 309 306 304 302 301 302 305 305 305
47 50 48 45 43 36 32 28 23 15 11 6 358 356 354 355 355 352 350 347 338 348 344 340 335 335 328 322 322 320 316 312 312 307 302 300 298 300 302 302 299 298
55 58 52 44 39 33 30 24 15 11 9 359 357 359 360 354 353 348 340 345 342 344 334 334 330 325 326 323 318 316 314 311 309 307 306 304 302 299 295 293 295 295
61 55 46 39 37 29 28 18 11 7 360 355 358 358 355 349 349 345 339 342 344 340 337 336 335 327 328 322 319 316 314 310 310 307 307 305 304 304 303 299 294 292
68 58 46 39 35 31 24 9 4 2 353 352 357 350 344 343 343 339 341 339 334 330 330 326 318 318 308 310 311 310 312 310 307 305 305 304 305 306 304 305 305 305
77 59 48 44 40 30 18 8 1 353 348 345 346 340 337 342 336 333 341 332 325 322 318 314 306 301 306 308 310 311 309 305 303 302 302 302 302 301 302 305 305 304
83 73 61 53 43 25 11 1 353 345 343 341 336 337 336 330 329 329 326 320 315 313 307 302 300 301 306 307 308 307 307 304 302 301 301 298 298 298 299 302 303 304
94 83 79 59 38 20 359 353 357 345 346 343 339 330 324 330 327 325 315 317 313 310 308 303 296 302 305 306 306 307 307 307 300 297 296 295 297 298 299 300 299 298
79 65 52 36 22 7 1 354 354 346 330 320 318 325 325 319 317 314 314 311 310 307 303 303 296 302 306 307 309 308 307 306 299 299 298 297 298 297 295 293 293 295
59 51 39 19 6 2 356 348 341 328 329 328 329 324 323 318 318 314 309 306 304 301 299 300 296 305 308 310 309 308 307 308 306 303 298 294 293 290 290 292 293 293
63 53 26 10 354 355 352 340 336 327 327 324 319 308 294 299 297 297 301 304 300 299 299 297 298 307 309 309 308 309 310 311 306 297 294 293 293 293 292 292 291 290
59 47 14 358 353 346 340 332 331 324 319 315 311 306 307 304 296 296 297 299 300 298 299 297 296 306 308 308 309 310 312 301 294 292 296 294 291 292 292 292 292 290
58 47 7 352 343 332 321 316 309 298 298 311 308 310 306 298 300 298 290 290 294 296 295 296 296 304 307 308 309 308 307 304 293 274 261 281 291 290 293 289 285 284
75 45 5 338 322 309 308 305 305 301 300 299 285 288 291 300 299 299 295 290 284 288 295 295 293 299 304 304 305 306 306 295 288 281 270 273 292 289 279 271 270 272
60 31 345 321 306 304 299 289 294 302 298 299 295 287 295 300 299 296 296 295 293 291 290 287 291 290 293 300 303 304 305 302 292 289 284 281 275 272 282 269 257 267